Time,TemperatureF,DewpointF,PressureIn,WindDirection,WindDirectionDegrees,WindSpeedMPH,WindSpeedGustMPH,Humidity,HourlyPrecipIn,Conditions,Clouds,dailyrainin,SoftwareType,DateUTC
2013-05-25 00:05:00,48.7,25.5,29.56,North,7,0.0,19.7,40,0.04,,,0.31,VWS V13.01,2013-05-25 04:05:00,
2013-05-25 00:10:00,48.6,25.4,29.56,North,7,0.0,19.7,40,0.04,,,0.31,VWS V13.01,2013-05-25 04:10:00,
2013-05-25 00:15:00,48.2,25.6,29.56,North,7,0.0,19.7,41,0.04,,,0.31,VWS V13.01,2013-05-25 04:15:00,
2013-05-25 00:20:00,48.0,25.5,29.56,North,7,0.0,19.7,41,0.04,,,0.31,VWS V13.01,2013-05-25 04:20:00,
2013-05-25 00:25:00,47.8,25.9,29.56,North,7,0.0,19.7,42,0.04,,,0.31,VWS V13.01,2013-05-25 04:25:00,
2013-05-25 00:30:00,47.8,26.4,29.56,North,7,0.0,19.7,43,0.04,,,0.31,VWS V13.01,2013-05-25 04:30:00,
2013-05-25 00:35:00,47.7,26.8,29.56,North,7,0.0,19.7,44,0.04,,,0.31,VWS V13.01,2013-05-25 04:35:00,
2013-05-25 00:40:00,47.5,26.7,29.56,North,7,0.0,19.7,44,0.04,,,0.31,VWS V13.01,2013-05-25 04:40:00,
2013-05-25 00:45:00,47.3,26.5,29.56,North,7,0.0,19.7,44,0.04,,,0.31,VWS V13.01,2013-05-25 04:45:00,
2013-05-25 00:50:00,47.3,28.1,29.56,North,7,0.0,19.7,47,0.04,,,0.31,VWS V13.01,2013-05-25 04:50:00,
2013-05-25 00:55:00,47.3,28.6,29.56,North,7,0.0,19.7,48,0.04,,,0.31,VWS V13.01,2013-05-25 04:55:00,
2013-05-25 01:00:00,47.3,28.6,29.56,North,7,0.0,19.7,48,0.04,,,0.31,VWS V13.01,2013-05-25 05:00:00,
2013-05-25 01:05:00,47.1,28.5,29.56,North,7,0.0,19.7,48,0.04,,,0.31,VWS V13.01,2013-05-25 05:05:00,
2013-05-25 01:10:00,46.8,28.1,29.56,North,7,0.0,19.7,48,0.04,,,0.31,VWS V13.01,2013-05-25 05:10:00,
2013-05-25 01:15:00,46.6,28.0,29.56,North,7,0.0,19.7,48,0.04,,,0.31,VWS V13.01,2013-05-25 05:15:00,
2013-05-25 01:20:00,46.4,27.8,29.56,North,7,0.0,19.7,48,0.04,,,0.31,VWS V13.01,2013-05-25 05:20:00,
2013-05-25 01:25:00,46.2,28.1,29.56,North,7,0.0,19.7,49,0.04,,,0.31,VWS V13.01,2013-05-25 05:25:00,
2013-05-25 01:30:00,46.2,28.1,29.56,North,7,0.0,19.7,49,0.04,,,0.31,VWS V13.01,2013-05-25 05:30:00,
2013-05-25 01:35:00,46.2,28.1,29.56,North,7,0.0,19.7,49,0.04,,,0.31,VWS V13.01,2013-05-25 05:35:00,
2013-05-25 01:40:00,46.0,28.0,29.56,North,7,0.0,19.7,49,0.04,,,0.31,VWS V13.01,2013-05-25 05:40:00,
2013-05-25 01:45:00,46.0,28.0,29.56,North,7,0.0,19.7,49,0.04,,,0.31,VWS V13.01,2013-05-25 05:45:00,
2013-05-25 01:50:00,45.9,27.8,29.56,North,7,0.0,19.7,49,0.04,,,0.31,VWS V13.01,2013-05-25 05:50:00,
2013-05-25 01:55:00,45.9,27.8,29.56,North,7,0.0,19.7,49,0.04,,,0.31,VWS V13.01,2013-05-25 05:55:00,
2013-05-25 02:00:00,45.7,27.6,29.56,North,7,0.0,19.7,49,0.04,,,0.31,VWS V13.01,2013-05-25 06:00:00,
2013-05-25 02:05:00,45.5,27.5,29.56,North,7,0.0,19.7,49,0.04,,,0.31,VWS V13.01,2013-05-25 06:05:00,
2013-05-25 02:10:00,45.3,27.8,29.56,North,7,0.0,19.7,50,0.04,,,0.31,VWS V13.01,2013-05-25 06:10:00,
2013-05-25 02:15:00,45.1,27.6,29.56,North,7,0.0,19.7,50,0.04,,,0.31,VWS V13.01,2013-05-25 06:15:00,
2013-05-25 02:20:00,45.0,27.5,29.56,North,7,0.0,19.7,50,0.04,,,0.31,VWS V13.01,2013-05-25 06:20:00,
2013-05-25 02:25:00,44.8,27.8,29.56,North,7,0.0,19.7,51,0.04,,,0.31,VWS V13.01,2013-05-25 06:25:00,
2013-05-25 02:30:00,44.8,27.3,29.56,North,7,0.0,19.7,50,0.04,,,0.31,VWS V13.01,2013-05-25 06:30:00,
2013-05-25 02:35:00,44.6,27.6,29.56,North,7,0.0,19.7,51,0.04,,,0.31,VWS V13.01,2013-05-25 06:35:00,
2013-05-25 02:40:00,44.6,27.6,29.56,North,7,0.0,19.7,51,0.04,,,0.31,VWS V13.01,2013-05-25 06:40:00,
2013-05-25 02:45:00,44.2,27.7,29.56,North,7,0.0,19.7,52,0.04,,,0.31,VWS V13.01,2013-05-25 06:45:00,
2013-05-25 02:50:00,44.2,27.7,29.56,North,7,0.0,19.7,52,0.04,,,0.31,VWS V13.01,2013-05-25 06:50:00,
2013-05-25 02:55:00,44.1,27.6,29.56,North,7,0.0,19.7,52,0.04,,,0.31,VWS V13.01,2013-05-25 06:55:00,
2013-05-25 03:00:00,44.1,27.6,29.56,North,7,0.0,19.7,52,0.04,,,0.31,VWS V13.01,2013-05-25 07:00:00,
2013-05-25 03:05:00,44.2,28.2,29.56,North,7,0.0,19.7,53,0.04,,,0.31,VWS V13.01,2013-05-25 07:05:00,
2013-05-25 03:10:00,44.2,28.2,29.56,North,7,0.0,19.7,53,0.04,,,0.31,VWS V13.01,2013-05-25 07:10:00,
2013-05-25 03:15:00,44.1,28.0,29.56,SE,131,0.0,19.7,53,0.04,,,0.31,VWS V13.01,2013-05-25 07:15:00,
2013-05-25 03:20:00,43.9,27.9,29.56,SE,130,0.0,19.7,53,0.04,,,0.31,VWS V13.01,2013-05-25 07:20:00,
2013-05-25 03:25:00,43.7,28.2,29.56,SE,131,0.0,19.7,54,0.04,,,0.31,VWS V13.01,2013-05-25 07:25:00,
2013-05-25 03:30:00,43.7,28.2,29.56,SE,131,0.0,19.7,54,0.04,,,0.31,VWS V13.01,2013-05-25 07:30:00,
2013-05-25 03:35:00,43.5,28.0,29.56,SE,131,0.0,19.7,54,0.04,,,0.31,VWS V13.01,2013-05-25 07:35:00,
2013-05-25 03:40:00,43.3,27.8,29.56,SE,131,0.0,19.7,54,0.04,,,0.31,VWS V13.01,2013-05-25 07:40:00,
2013-05-25 03:45:00,43.2,27.7,29.56,SE,131,0.0,19.7,54,0.04,,,0.31,VWS V13.01,2013-05-25 07:45:00,
2013-05-25 03:50:00,43.0,27.5,29.56,SE,130,0.0,19.7,54,0.04,,,0.31,VWS V13.01,2013-05-25 07:50:00,
2013-05-25 03:55:00,43.0,27.5,29.56,SE,131,0.0,19.7,54,0.04,,,0.31,VWS V13.01,2013-05-25 07:55:00,
2013-05-25 04:00:00,43.0,27.9,29.56,SE,131,0.0,19.7,55,0.04,,,0.31,VWS V13.01,2013-05-25 08:00:00,
2013-05-25 04:05:00,42.8,27.8,29.56,SE,131,0.0,19.7,55,0.04,,,0.31,VWS V13.01,2013-05-25 08:05:00,
2013-05-25 04:10:00,42.8,27.8,29.56,SE,131,0.0,19.7,55,0.04,,,0.31,VWS V13.01,2013-05-25 08:10:00,
2013-05-25 04:15:00,42.8,27.8,29.56,SE,130,0.0,19.7,55,0.04,,,0.31,VWS V13.01,2013-05-25 08:15:00,
2013-05-25 04:20:00,43.0,28.4,29.56,SE,130,0.0,19.7,56,0.04,,,0.31,VWS V13.01,2013-05-25 08:20:00,
2013-05-25 04:25:00,42.8,27.8,29.56,SE,131,0.0,19.7,55,0.04,,,0.31,VWS V13.01,2013-05-25 08:25:00,
2013-05-25 04:30:00,42.6,27.6,29.56,SE,131,0.0,19.7,55,0.04,,,0.31,VWS V13.01,2013-05-25 08:30:00,
2013-05-25 04:35:00,42.4,27.9,29.56,SE,131,0.0,19.7,56,0.04,,,0.31,VWS V13.01,2013-05-25 08:35:00,
2013-05-25 04:40:00,42.4,27.9,29.56,SE,131,0.0,19.7,56,0.04,,,0.31,VWS V13.01,2013-05-25 08:40:00,
2013-05-25 04:45:00,42.4,28.3,29.56,SE,131,0.0,19.7,57,0.04,,,0.31,VWS V13.01,2013-05-25 08:45:00,
2013-05-25 04:50:00,42.4,28.3,29.56,SE,131,2.2,19.7,57,0.04,,,0.31,VWS V13.01,2013-05-25 08:50:00,
2013-05-25 04:55:00,42.3,28.1,29.56,SE,131,0.0,19.7,57,0.04,,,0.31,VWS V13.01,2013-05-25 08:55:00,
2013-05-25 05:00:00,42.3,28.5,29.56,SE,125,0.0,19.7,58,0.04,,,0.31,VWS V13.01,2013-05-25 09:00:00,
2013-05-25 05:05:00,42.3,28.5,29.56,SE,125,2.2,19.7,58,0.04,,,0.31,VWS V13.01,2013-05-25 09:05:00,
2013-05-25 05:11:00,42.3,29.0,29.56,SE,125,2.2,19.7,59,0.04,,,0.31,VWS V13.01,2013-05-25 09:11:00,
2013-05-25 05:16:00,42.3,29.0,29.56,SSE,150,0.0,19.7,59,0.04,,,0.31,VWS V13.01,2013-05-25 09:16:00,
2013-05-25 05:21:00,42.3,29.0,29.56,South,188,0.0,19.7,59,0.04,,,0.31,VWS V13.01,2013-05-25 09:21:00,
2013-05-25 05:26:00,42.1,28.8,29.56,South,188,0.0,19.7,59,0.04,,,0.31,VWS V13.01,2013-05-25 09:26:00,
2013-05-25 05:31:00,42.1,28.8,29.59,South,188,0.0,19.7,59,0.04,,,0.31,VWS V13.01,2013-05-25 09:31:00,
2013-05-25 05:36:00,41.9,28.6,29.59,South,188,0.0,19.7,59,0.04,,,0.31,VWS V13.01,2013-05-25 09:36:00,
2013-05-25 05:41:00,41.9,28.6,29.59,South,188,0.0,19.7,59,0.04,,,0.31,VWS V13.01,2013-05-25 09:41:00,
2013-05-25 05:46:00,41.9,29.0,29.59,South,188,0.0,19.7,60,0.04,,,0.31,VWS V13.01,2013-05-25 09:46:00,
2013-05-25 05:51:00,41.9,29.0,29.59,South,188,0.0,19.7,60,0.04,,,0.31,VWS V13.01,2013-05-25 09:51:00,
2013-05-25 05:56:00,41.9,29.0,29.59,South,188,0.0,19.7,60,0.04,,,0.31,VWS V13.01,2013-05-25 09:56:00,
2013-05-25 06:01:00,41.7,28.9,29.59,South,188,0.0,19.7,60,0.04,,,0.31,VWS V13.01,2013-05-25 10:01:00,
2013-05-25 06:06:00,41.7,28.5,29.59,South,187,0.0,19.7,59,0.04,,,0.31,VWS V13.01,2013-05-25 10:06:00,
2013-05-25 06:11:00,41.5,28.3,29.59,South,187,0.0,19.7,59,0.04,,,0.31,VWS V13.01,2013-05-25 10:11:00,
2013-05-25 06:16:00,41.4,28.1,29.59,South,185,0.0,19.7,59,0.04,,,0.31,VWS V13.01,2013-05-25 10:16:00,
2013-05-25 06:21:00,41.4,28.5,29.59,SSE,154,2.7,19.7,60,0.04,,,0.31,VWS V13.01,2013-05-25 10:21:00,
2013-05-25 06:26:00,41.2,28.4,29.59,ESE,119,0.0,19.7,60,0.04,,,0.31,VWS V13.01,2013-05-25 10:26:00,
2013-05-25 06:31:00,41.2,28.8,29.59,ESE,119,0.0,19.7,61,0.04,,,0.31,VWS V13.01,2013-05-25 10:31:00,
2013-05-25 06:36:00,41.0,28.6,29.59,ESE,119,0.0,19.7,61,0.04,,,0.31,VWS V13.01,2013-05-25 10:36:00,
2013-05-25 06:41:00,41.0,28.6,29.59,ESE,119,0.0,19.7,61,0.04,,,0.31,VWS V13.01,2013-05-25 10:41:00,
2013-05-25 06:46:00,41.0,28.6,29.59,ESE,119,0.0,19.7,61,0.04,,,0.31,VWS V13.01,2013-05-25 10:46:00,
2013-05-25 06:51:00,41.0,28.6,29.59,ESE,119,0.0,19.7,61,0.04,,,0.31,VWS V13.01,2013-05-25 10:51:00,
2013-05-25 06:56:00,41.0,28.6,29.62,ESE,119,0.0,19.7,61,0.04,,,0.31,VWS V13.01,2013-05-25 10:56:00,
2013-05-25 07:01:00,41.0,28.6,29.62,ESE,119,0.0,19.7,61,0.04,,,0.31,VWS V13.01,2013-05-25 11:01:00,
2013-05-25 07:06:00,41.2,28.8,29.62,ESE,119,0.0,19.7,61,0.04,,,0.31,VWS V13.01,2013-05-25 11:06:00,
2013-05-25 07:11:00,41.2,29.2,29.62,ESE,119,0.0,19.7,62,0.04,,,0.31,VWS V13.01,2013-05-25 11:11:00,
2013-05-25 07:16:00,41.4,29.3,29.62,ESE,119,0.0,19.7,62,0.04,,,0.31,VWS V13.01,2013-05-25 11:16:00,
2013-05-25 07:21:00,41.9,29.9,29.62,SSE,156,2.7,19.7,62,0.04,,,0.31,VWS V13.01,2013-05-25 11:21:00,
2013-05-25 07:26:00,42.4,30.8,29.62,SSE,155,0.0,19.7,63,0.04,,,0.31,VWS V13.01,2013-05-25 11:26:00,
2013-05-25 07:31:00,43.3,31.6,29.62,SSE,155,0.0,19.7,63,0.04,,,0.31,VWS V13.01,2013-05-25 11:31:00,
2013-05-25 07:36:00,44.1,32.3,29.62,SSE,155,0.0,19.7,63,0.04,,,0.31,VWS V13.01,2013-05-25 11:36:00,
2013-05-25 07:41:00,44.8,33.0,29.59,SE,124,2.2,19.7,63,0.04,,,0.31,VWS V13.01,2013-05-25 11:41:00,
2013-05-25 07:46:00,45.3,33.5,29.59,SE,129,0.0,19.7,63,0.04,,,0.31,VWS V13.01,2013-05-25 11:46:00,
2013-05-25 07:51:00,46.2,34.7,29.59,SSE,153,0.0,19.7,64,0.04,,,0.31,VWS V13.01,2013-05-25 11:51:00,
2013-05-25 07:56:00,47.1,35.6,29.59,ESE,112,2.7,19.7,64,0.04,,,0.31,VWS V13.01,2013-05-25 11:56:00,
2013-05-25 08:01:00,47.8,36.3,29.62,ESE,116,4.0,19.7,64,0.04,,,0.31,VWS V13.01,2013-05-25 12:01:00,
2013-05-25 08:06:00,48.4,36.8,29.62,ESE,122,3.1,19.7,64,0.04,,,0.31,VWS V13.01,2013-05-25 12:06:00,
2013-05-25 08:11:00,48.9,33.5,29.62,ESE,111,6.3,19.7,55,0.04,,,0.31,VWS V13.01,2013-05-25 12:11:00,
2013-05-25 08:16:00,49.5,30.6,29.62,ESE,106,4.0,19.7,48,0.04,,,0.31,VWS V13.01,2013-05-25 12:16:00,
2013-05-25 08:21:00,49.8,28.2,29.62,ESE,117,2.7,19.7,43,0.04,,,0.31,VWS V13.01,2013-05-25 12:21:00,
2013-05-25 08:26:00,50.2,25.6,29.62,SE,128,5.8,19.7,38,0.04,,,0.31,VWS V13.01,2013-05-25 12:26:00,
2013-05-25 08:31:00,50.7,24.8,29.62,SE,133,8.1,19.7,36,0.04,,,0.31,VWS V13.01,2013-05-25 12:31:00,
2013-05-25 08:36:00,51.3,24.6,29.62,ESE,119,3.6,19.7,35,0.04,,,0.31,VWS V13.01,2013-05-25 12:36:00,
2013-05-25 08:41:00,51.8,21.4,29.62,SE,129,4.0,19.7,30,0.04,,,0.31,VWS V13.01,2013-05-25 12:41:00,
2013-05-25 08:46:00,52.3,20.2,29.62,SSE,157,7.6,19.7,28,0.04,,,0.31,VWS V13.01,2013-05-25 12:46:00,
2013-05-25 08:52:00,52.9,19.8,29.62,SSE,147,6.3,19.7,27,0.04,,,0.31,VWS V13.01,2013-05-25 12:52:00,
2013-05-25 08:57:00,53.1,20.8,29.62,ESE,111,5.8,19.7,28,0.04,,,0.31,VWS V13.01,2013-05-25 12:57:00,
2013-05-25 09:02:00,53.4,20.3,29.62,SE,143,5.4,19.7,27,0.04,,,0.31,VWS V13.01,2013-05-25 13:02:00,
2013-05-25 09:07:00,53.4,20.3,29.62,SE,135,7.2,19.7,27,0.04,,,0.31,VWS V13.01,2013-05-25 13:07:00,
2013-05-25 09:12:00,53.6,19.6,29.62,SE,145,8.3,19.7,26,0.04,,,0.31,VWS V13.01,2013-05-25 13:12:00,
2013-05-25 09:17:00,54.0,19.9,29.62,ESE,114,5.8,19.7,26,0.04,,,0.31,VWS V13.01,2013-05-25 13:17:00,
2013-05-25 09:22:00,54.5,20.3,29.62,ESE,118,5.8,19.7,26,0.04,,,0.31,VWS V13.01,2013-05-25 13:22:00,
2013-05-25 09:27:00,55.0,20.8,29.62,ESE,117,10.1,19.7,26,0.04,,,0.31,VWS V13.01,2013-05-25 13:27:00,
2013-05-25 09:32:00,55.2,18.1,29.62,SE,130,6.7,19.7,23,0.04,,,0.31,VWS V13.01,2013-05-25 13:32:00,
2013-05-25 09:37:00,55.6,20.3,29.62,East,101,3.6,19.7,25,0.04,,,0.31,VWS V13.01,2013-05-25 13:37:00,
2013-05-25 09:42:00,56.1,17.8,29.62,SE,127,5.4,19.7,22,0.04,,,0.31,VWS V13.01,2013-05-25 13:42:00,
2013-05-25 09:47:00,56.8,16.2,29.62,East,96,5.4,19.7,20,0.04,,,0.31,VWS V13.01,2013-05-25 13:47:00,
2013-05-25 09:52:00,56.8,12.5,29.62,ENE,76,7.6,19.7,17,0.04,,,0.31,VWS V13.01,2013-05-25 13:52:00,
2013-05-25 09:58:00,57.0,12.7,29.62,ESE,110,4.0,19.7,17,0.04,,,0.31,VWS V13.01,2013-05-25 13:58:00,
2013-05-25 10:03:00,57.6,13.1,29.62,ESE,114,5.4,19.7,17,0.04,,,0.31,VWS V13.01,2013-05-25 14:03:00,
2013-05-25 10:08:00,58.1,13.5,29.62,ESE,104,5.4,19.7,17,0.04,,,0.31,VWS V13.01,2013-05-25 14:08:00,
2013-05-25 10:13:00,57.9,13.4,29.59,ESE,108,10.5,19.7,17,0.04,,,0.31,VWS V13.01,2013-05-25 14:13:00,
2013-05-25 10:18:00,58.3,13.7,29.59,SE,136,5.8,19.7,17,0.04,,,0.31,VWS V13.01,2013-05-25 14:18:00,
2013-05-25 10:23:00,58.8,14.1,29.59,SE,143,5.4,19.7,17,0.04,,,0.31,VWS V13.01,2013-05-25 14:23:00,
2013-05-25 10:28:00,59.4,14.6,29.62,ESE,117,6.3,19.7,17,0.04,,,0.31,VWS V13.01,2013-05-25 14:28:00,
2013-05-25 10:33:00,59.4,10.2,29.62,ENE,62,0.0,19.7,14,0.04,,,0.31,VWS V13.01,2013-05-25 14:33:00,
2013-05-25 10:38:00,59.5,10.3,29.62,East,80,5.4,19.7,14,0.04,,,0.31,VWS V13.01,2013-05-25 14:38:00,
2013-05-25 10:43:00,59.9,10.6,29.62,ENE,73,5.4,19.7,14,0.04,,,0.31,VWS V13.01,2013-05-25 14:43:00,
2013-05-25 10:48:00,60.1,10.8,29.62,SSE,157,5.8,19.7,14,0.04,,,0.31,VWS V13.01,2013-05-25 14:48:00,
2013-05-25 10:53:00,60.1,10.8,29.62,South,176,5.4,19.7,14,0.04,,,0.31,VWS V13.01,2013-05-25 14:53:00,
2013-05-25 10:58:00,60.3,10.9,29.62,SE,145,7.6,19.7,14,0.04,,,0.31,VWS V13.01,2013-05-25 14:58:00,
2013-05-25 11:03:00,60.8,11.3,29.62,SE,125,6.3,19.7,14,0.04,,,0.31,VWS V13.01,2013-05-25 15:03:00,
2013-05-25 11:08:00,61.0,11.5,29.62,SSE,159,6.3,19.7,14,0.04,,,0.31,VWS V13.01,2013-05-25 15:08:00,
2013-05-25 11:13:00,60.8,11.3,29.62,SW,221,3.6,19.7,14,0.04,,,0.31,VWS V13.01,2013-05-25 15:13:00,
2013-05-25 11:18:00,60.6,11.2,29.62,SSW,194,3.6,19.7,14,0.04,,,0.31,VWS V13.01,2013-05-25 15:18:00,
2013-05-25 11:23:00,60.6,11.2,29.62,SE,138,6.3,19.7,14,0.04,,,0.31,VWS V13.01,2013-05-25 15:23:00,
2013-05-25 11:28:00,61.2,11.6,29.62,ENE,78,2.7,19.7,14,0.04,,,0.31,VWS V13.01,2013-05-25 15:28:00,
2013-05-25 11:33:00,61.3,11.8,29.62,NE,54,2.7,19.7,14,0.04,,,0.31,VWS V13.01,2013-05-25 15:33:00,
2013-05-25 11:38:00,61.3,11.8,29.62,ESE,103,2.7,19.7,14,0.04,,,0.51,VWS V13.01,2013-05-25 15:38:00,
2013-05-25 11:43:00,61.3,11.8,29.62,East,80,2.7,19.7,14,0.04,,,0.51,VWS V13.01,2013-05-25 15:43:00,
2013-05-25 11:48:00,61.7,12.1,29.62,East,86,0.0,19.7,14,0.04,,,0.51,VWS V13.01,2013-05-25 15:48:00,
2013-05-25 11:53:00,62.2,12.5,29.62,SE,137,0.0,19.7,14,0.04,,,0.51,VWS V13.01,2013-05-25 15:53:00,
2013-05-25 11:58:00,63.1,11.5,29.62,SE,137,0.0,19.7,13,0.04,,,0.51,VWS V13.01,2013-05-25 15:58:00,
2013-05-25 12:03:00,63.3,11.7,29.62,SSE,160,2.2,19.7,13,0.04,,,0.51,VWS V13.01,2013-05-25 16:03:00,
2013-05-25 12:08:00,63.5,11.8,29.62,ESE,111,2.2,19.7,13,0.04,,,0.51,VWS V13.01,2013-05-25 16:08:00,
2013-05-25 12:13:00,63.5,11.8,29.62,ESE,111,3.1,19.7,13,0.04,,,0.51,VWS V13.01,2013-05-25 16:13:00,
2013-05-25 12:18:00,63.5,11.8,29.62,SSW,201,0.0,19.7,13,0.04,,,0.51,VWS V13.01,2013-05-25 16:18:00,
2013-05-25 12:23:00,63.3,11.7,29.62,ESE,105,5.8,19.7,13,0.04,,,0.51,VWS V13.01,2013-05-25 16:23:00,
2013-05-25 12:28:00,63.1,11.5,29.62,ESE,114,0.0,19.7,13,0.04,,,0.51,VWS V13.01,2013-05-25 16:28:00,
2013-05-25 12:33:00,63.5,11.8,29.62,SSW,192,2.7,19.7,13,0.04,,,0.51,VWS V13.01,2013-05-25 16:33:00,
2013-05-25 12:38:00,63.3,11.7,29.62,SE,146,2.2,19.7,13,0.04,,,0.51,VWS V13.01,2013-05-25 16:38:00,
2013-05-25 12:43:00,63.3,11.7,29.62,SSW,196,2.7,19.7,13,0.04,,,0.51,VWS V13.01,2013-05-25 16:43:00,
2013-05-25 12:48:00,63.7,11.9,29.62,SE,137,3.1,19.7,13,0.04,,,0.51,VWS V13.01,2013-05-25 16:48:00,
2013-05-25 12:53:00,64.4,12.5,29.62,SW,231,4.9,19.7,13,0.04,,,0.51,VWS V13.01,2013-05-25 16:53:00,
2013-05-25 12:58:00,64.6,12.7,29.59,SSE,167,7.6,19.7,13,0.04,,,0.51,VWS V13.01,2013-05-25 16:58:00,
2013-05-25 13:03:00,64.2,12.4,29.59,SE,138,3.6,19.7,13,0.04,,,0.51,VWS V13.01,2013-05-25 17:03:00,
2013-05-25 13:08:00,63.9,12.1,29.59,SW,230,0.0,19.7,13,0.04,,,0.51,VWS V13.01,2013-05-25 17:08:00,
2013-05-25 13:13:00,63.9,12.1,29.59,South,175,5.4,19.7,13,0.04,,,0.51,VWS V13.01,2013-05-25 17:13:00,
2013-05-25 13:18:00,63.9,12.1,29.59,ESE,113,4.0,19.7,13,0.04,,,0.51,VWS V13.01,2013-05-25 17:18:00,
2013-05-25 13:23:00,64.2,12.4,29.59,ENE,73,0.0,19.7,13,0.04,,,0.51,VWS V13.01,2013-05-25 17:23:00,
2013-05-25 13:28:00,64.6,12.7,29.59,East,90,2.2,19.7,13,0.04,,,0.51,VWS V13.01,2013-05-25 17:28:00,
2013-05-25 13:33:00,64.8,12.8,29.59,NNW,339,0.0,19.7,13,0.04,,,0.51,VWS V13.01,2013-05-25 17:33:00,
2013-05-25 13:38:00,65.8,13.6,29.59,SE,140,4.0,19.7,13,0.04,,,0.51,VWS V13.01,2013-05-25 17:38:00,
2013-05-25 13:44:00,65.8,13.6,29.59,NNE,24,0.0,19.7,13,0.04,,,0.51,VWS V13.01,2013-05-25 17:44:00,
2013-05-25 13:49:00,65.8,13.6,29.59,ESE,109,0.0,19.7,13,0.04,,,0.51,VWS V13.01,2013-05-25 17:49:00,
2013-05-25 13:54:00,66.0,13.8,29.59,South,188,2.7,19.7,13,0.04,,,0.51,VWS V13.01,2013-05-25 17:54:00,
2013-05-25 13:59:00,66.0,13.8,29.59,NE,49,3.6,19.7,13,0.04,,,0.51,VWS V13.01,2013-05-25 17:59:00,
2013-05-25 14:04:00,65.7,13.5,29.59,ESE,116,2.7,19.7,13,0.04,,,0.51,VWS V13.01,2013-05-25 18:04:00,
2013-05-25 14:11:00,66.0,13.8,29.59,SSW,207,2.2,19.7,13,0.04,,,0.51,VWS V13.01,2013-05-25 18:11:00,
2013-05-25 14:16:00,66.6,12.4,29.59,WSW,251,2.2,19.7,12,0.04,,,0.51,VWS V13.01,2013-05-25 18:16:00,
2013-05-25 14:21:00,66.7,12.5,29.59,WNW,290,5.4,19.7,12,0.04,,,0.51,VWS V13.01,2013-05-25 18:21:00,
2013-05-25 14:26:00,66.7,12.5,29.59,West,277,0.0,19.7,12,0.04,,,0.51,VWS V13.01,2013-05-25 18:26:00,
2013-05-25 14:31:00,66.4,12.3,29.59,SW,221,0.0,19.7,12,0.04,,,0.51,VWS V13.01,2013-05-25 18:31:00,
2013-05-25 14:36:00,66.6,12.4,29.59,SSW,208,3.1,19.7,12,0.04,,,0.51,VWS V13.01,2013-05-25 18:36:00,
2013-05-25 14:41:00,66.2,12.1,29.59,South,188,3.6,19.7,12,0.04,,,0.51,VWS V13.01,2013-05-25 18:41:00,
2013-05-25 14:46:00,65.8,13.6,29.59,SE,132,0.0,19.7,13,0.04,,,0.51,VWS V13.01,2013-05-25 18:46:00,
2013-05-25 14:51:00,66.2,12.1,29.59,WNW,292,3.1,19.7,12,0.04,,,0.51,VWS V13.01,2013-05-25 18:51:00,
2013-05-25 14:56:00,66.2,12.1,29.59,NNW,343,3.1,19.7,12,0.04,,,0.51,VWS V13.01,2013-05-25 18:56:00,
2013-05-25 15:01:00,66.0,13.8,29.59,NW,319,2.7,19.7,13,0.04,,,0.51,VWS V13.01,2013-05-25 19:01:00,
2013-05-25 15:11:00,65.7,13.5,29.56,ESE,118,2.2,19.7,13,0.04,,,0.51,VWS V13.01,2013-05-25 19:11:00,
2013-05-25 15:16:00,65.8,13.6,29.56,NNW,327,0.0,19.7,13,0.04,,,0.51,VWS V13.01,2013-05-25 19:16:00,
2013-05-25 15:21:00,66.2,12.1,29.56,SW,233,2.2,19.7,12,0.04,,,0.51,VWS V13.01,2013-05-25 19:21:00,
2013-05-25 15:26:00,66.6,12.4,29.56,WNW,283,0.0,19.7,12,0.04,,,0.51,VWS V13.01,2013-05-25 19:26:00,
2013-05-25 15:31:00,66.4,12.3,29.56,WSW,250,3.6,19.7,12,0.04,,,0.51,VWS V13.01,2013-05-25 19:31:00,
2013-05-25 15:36:00,66.2,12.1,29.56,SW,218,3.1,19.7,12,0.04,,,0.51,VWS V13.01,2013-05-25 19:36:00,
2013-05-25 15:41:00,66.2,12.1,29.56,WNW,288,0.0,19.7,12,0.04,,,0.51,VWS V13.01,2013-05-25 19:41:00,
2013-05-25 15:46:00,66.0,13.8,29.56,WNW,288,3.1,19.7,13,0.04,,,0.51,VWS V13.01,2013-05-25 19:46:00,
2013-05-25 15:51:00,66.2,12.1,29.56,NNW,340,2.7,19.7,12,0.04,,,0.51,VWS V13.01,2013-05-25 19:51:00,
2013-05-25 15:56:00,66.2,12.1,29.56,NW,321,4.0,19.7,12,0.04,,,0.51,VWS V13.01,2013-05-25 19:56:00,
2013-05-25 16:01:00,66.2,12.1,29.56,WNW,287,2.7,19.7,12,0.04,,,0.51,VWS V13.01,2013-05-25 20:01:00,
2013-05-25 16:06:00,66.2,12.1,29.56,West,273,2.7,19.7,12,0.04,,,0.51,VWS V13.01,2013-05-25 20:06:00,
2013-05-25 16:11:00,66.0,13.8,29.56,WSW,253,0.0,19.7,13,0.04,,,0.51,VWS V13.01,2013-05-25 20:11:00,
2013-05-25 16:16:00,66.2,12.1,29.56,North,0,2.7,19.7,12,0.04,,,0.51,VWS V13.01,2013-05-25 20:16:00,
2013-05-25 16:21:00,66.7,12.5,29.56,North,5,0.0,19.7,12,0.04,,,0.51,VWS V13.01,2013-05-25 20:21:00,
2013-05-25 16:26:00,66.7,12.5,29.56,WNW,299,5.8,19.7,12,0.04,,,0.51,VWS V13.01,2013-05-25 20:26:00,
2013-05-25 16:31:00,66.4,12.3,29.56,WNW,284,0.0,19.7,12,0.04,,,0.51,VWS V13.01,2013-05-25 20:31:00,
2013-05-25 16:36:00,66.6,12.4,29.56,WNW,299,3.6,19.7,12,0.04,,,0.51,VWS V13.01,2013-05-25 20:36:00,
2013-05-25 16:41:00,66.4,12.3,29.56,NNW,345,4.9,19.7,12,0.04,,,0.51,VWS V13.01,2013-05-25 20:41:00,
2013-05-25 16:46:00,66.6,12.4,29.56,WNW,300,3.6,19.7,12,0.04,,,0.51,VWS V13.01,2013-05-25 20:46:00,
2013-05-25 16:51:00,66.7,12.5,29.56,WNW,299,2.7,19.7,12,0.04,,,0.51,VWS V13.01,2013-05-25 20:51:00,
2013-05-25 16:56:00,67.1,12.8,29.53,NW,311,0.0,19.7,12,0.04,,,0.51,VWS V13.01,2013-05-25 20:56:00,
2013-05-25 17:01:00,67.3,13.0,29.53,West,268,3.6,19.7,12,0.04,,,0.51,VWS V13.01,2013-05-25 21:01:00,
2013-05-25 17:06:00,67.1,12.8,29.53,West,279,5.8,19.7,12,0.04,,,0.51,VWS V13.01,2013-05-25 21:06:00,
2013-05-25 17:11:00,67.1,12.8,29.53,NW,307,2.7,19.7,12,0.04,,,0.51,VWS V13.01,2013-05-25 21:11:00,
2013-05-25 17:16:00,66.7,12.5,29.53,West,276,2.7,19.7,12,0.04,,,0.51,VWS V13.01,2013-05-25 21:16:00,
2013-05-25 17:21:00,66.6,12.4,29.53,WNW,297,2.7,19.7,12,0.04,,,0.51,VWS V13.01,2013-05-25 21:21:00,
2013-05-25 17:27:00,66.4,12.3,29.53,NNW,345,3.1,19.7,12,0.04,,,0.51,VWS V13.01,2013-05-25 21:27:00,
2013-05-25 17:32:00,66.2,12.1,29.53,NE,35,2.7,19.7,12,0.04,,,0.51,VWS V13.01,2013-05-25 21:32:00,
2013-05-25 17:37:00,66.0,13.8,29.53,NNE,23,0.0,19.7,13,0.04,,,0.51,VWS V13.01,2013-05-25 21:37:00,
2013-05-25 17:42:00,65.8,13.6,29.53,NNW,340,4.0,19.7,13,0.04,,,0.51,VWS V13.01,2013-05-25 21:42:00,
2013-05-25 17:47:00,66.0,13.8,29.53,North,357,2.2,19.7,13,0.04,,,0.51,VWS V13.01,2013-05-25 21:47:00,
2013-05-25 17:52:00,66.0,13.8,29.53,NW,325,3.6,19.7,13,0.04,,,0.51,VWS V13.01,2013-05-25 21:52:00,
2013-05-25 17:57:00,66.4,12.3,29.53,WNW,283,3.1,19.7,12,0.04,,,0.51,VWS V13.01,2013-05-25 21:57:00,
2013-05-25 18:02:00,66.4,12.3,29.53,North,353,3.1,19.7,12,0.04,,,0.51,VWS V13.01,2013-05-25 22:02:00,
2013-05-25 18:07:00,66.2,12.1,29.53,NW,310,0.0,19.7,12,0.04,,,0.51,VWS V13.01,2013-05-25 22:07:00,
2013-05-25 18:12:00,66.0,13.8,29.53,NW,308,4.5,19.7,13,0.04,,,0.51,VWS V13.01,2013-05-25 22:12:00,
2013-05-25 18:17:00,65.8,13.6,29.53,NNW,342,2.7,19.7,13,0.04,,,0.51,VWS V13.01,2013-05-25 22:17:00,
2013-05-25 18:22:00,65.7,13.5,29.53,North,353,2.2,19.7,13,0.04,,,0.51,VWS V13.01,2013-05-25 22:22:00,
2013-05-25 18:27:00,65.5,13.4,29.53,NE,35,2.7,19.7,13,0.04,,,0.51,VWS V13.01,2013-05-25 22:27:00,
2013-05-25 18:32:00,65.5,13.4,29.53,NE,35,0.0,19.7,13,0.04,,,0.51,VWS V13.01,2013-05-25 22:32:00,
2013-05-25 18:37:00,65.5,13.4,29.53,NE,35,0.0,19.7,13,0.04,,,0.51,VWS V13.01,2013-05-25 22:37:00,
2013-05-25 18:42:00,65.5,13.4,29.53,NNW,337,2.7,19.7,13,0.04,,,0.51,VWS V13.01,2013-05-25 22:42:00,
2013-05-25 18:47:00,65.3,13.2,29.53,NNW,339,0.0,19.7,13,0.04,,,0.51,VWS V13.01,2013-05-25 22:47:00,
2013-05-25 18:52:00,65.1,13.1,29.53,NNW,339,0.0,19.7,13,0.04,,,0.51,VWS V13.01,2013-05-25 22:52:00,
2013-05-25 18:57:00,64.9,12.9,29.53,NNW,341,0.0,19.7,13,0.04,,,0.51,VWS V13.01,2013-05-25 22:57:00,
2013-05-25 19:02:00,64.8,12.8,29.53,North,10,0.0,19.7,13,0.04,,,0.51,VWS V13.01,2013-05-25 23:02:00,
2013-05-25 19:07:00,64.4,12.5,29.53,North,9,2.7,19.7,13,0.04,,,0.51,VWS V13.01,2013-05-25 23:07:00,
2013-05-25 19:12:00,64.2,12.4,29.53,North,9,0.0,19.7,13,0.04,,,0.51,VWS V13.01,2013-05-25 23:12:00,
2013-05-25 19:17:00,64.0,12.2,29.53,North,9,0.0,19.7,13,0.04,,,0.51,VWS V13.01,2013-05-25 23:17:00,
2013-05-25 19:22:00,63.9,12.1,29.53,North,9,0.0,19.7,13,0.04,,,0.51,VWS V13.01,2013-05-25 23:22:00,
2013-05-25 19:27:00,63.9,12.1,29.53,North,9,0.0,19.7,13,0.04,,,0.51,VWS V13.01,2013-05-25 23:27:00,
2013-05-25 19:32:00,63.9,12.1,29.53,North,9,0.0,19.7,13,0.04,,,0.51,VWS V13.01,2013-05-25 23:32:00,
2013-05-25 19:37:00,63.9,12.1,29.53,NNE,15,0.0,19.7,13,0.04,,,0.51,VWS V13.01,2013-05-25 23:37:00,
2013-05-25 19:42:00,63.9,12.1,29.53,NNE,15,0.0,19.7,13,0.04,,,0.51,VWS V13.01,2013-05-25 23:42:00,
2013-05-25 19:47:00,63.7,11.9,29.53,NNE,15,0.0,19.7,13,0.04,,,0.51,VWS V13.01,2013-05-25 23:47:00,
2013-05-25 19:52:00,63.5,11.8,29.53,NNE,15,0.0,19.7,13,0.04,,,0.51,VWS V13.01,2013-05-25 23:52:00,
2013-05-25 19:57:00,63.1,11.5,29.50,NNE,15,0.0,19.7,13,0.04,,,0.51,VWS V13.01,2013-05-25 23:57:00,
2013-05-25 20:02:00,63.1,11.5,29.50,NNE,15,0.0,19.7,13,0.04,,,0.51,VWS V13.01,2013-05-26 00:02:00,
2013-05-25 20:07:00,62.8,11.2,29.50,NNE,15,0.0,19.7,13,0.04,,,0.51,VWS V13.01,2013-05-26 00:07:00,
2013-05-25 21:10:00,61.3,18.8,29.47,ESE,115,0.0,19.7,19,0.04,,,0.51,VWS V13.01,2013-05-26 01:10:00,
2013-05-25 21:15:00,61.2,18.6,29.47,ESE,115,0.0,19.7,19,0.04,,,0.51,VWS V13.01,2013-05-26 01:15:00,
2013-05-25 21:20:00,61.2,18.6,29.47,ESE,115,0.0,19.7,19,0.04,,,0.51,VWS V13.01,2013-05-26 01:20:00,
2013-05-25 21:25:00,61.2,18.6,29.47,North,0,0.0,19.7,19,0.04,,,0.51,VWS V13.01,2013-05-26 01:25:00,
2013-05-25 21:30:00,61.0,18.5,29.50,North,0,0.0,19.7,19,0.04,,,0.51,VWS V13.01,2013-05-26 01:30:00,
2013-05-25 21:35:00,60.8,18.3,29.50,ENE,61,0.0,19.7,19,0.04,,,0.51,VWS V13.01,2013-05-26 01:35:00,
2013-05-25 21:40:00,60.4,18.0,29.50,ENE,61,0.0,19.7,19,0.04,,,0.51,VWS V13.01,2013-05-26 01:40:00,
2013-05-25 21:45:00,60.4,15.4,29.50,ENE,61,0.0,19.7,17,0.04,,,0.51,VWS V13.01,2013-05-26 01:45:00,
2013-05-25 21:50:00,60.4,18.0,29.50,ENE,61,0.0,19.7,19,0.04,,,0.51,VWS V13.01,2013-05-26 01:50:00,
2013-05-25 21:55:00,60.3,17.9,29.50,ENE,61,0.0,19.7,19,0.04,,,0.51,VWS V13.01,2013-05-26 01:55:00,
2013-05-25 22:00:00,60.3,17.9,29.50,ENE,61,0.0,19.7,19,0.04,,,0.51,VWS V13.01,2013-05-26 02:00:00,
2013-05-25 22:05:00,60.1,23.2,29.50,ENE,61,0.0,19.7,24,0.04,,,0.51,VWS V13.01,2013-05-26 02:05:00,
2013-05-25 22:10:00,59.9,23.0,29.50,ENE,61,0.0,19.7,24,0.04,,,0.51,VWS V13.01,2013-05-26 02:10:00,
2013-05-25 22:15:00,59.5,23.7,29.50,ENE,61,0.0,19.7,25,0.04,,,0.51,VWS V13.01,2013-05-26 02:15:00,
2013-05-25 22:20:00,59.5,22.7,29.50,ENE,61,0.0,19.7,24,0.04,,,0.51,VWS V13.01,2013-05-26 02:20:00,
2013-05-25 22:25:00,59.5,22.7,29.50,ENE,61,0.0,19.7,24,0.04,,,0.51,VWS V13.01,2013-05-26 02:25:00,
2013-05-25 22:30:00,59.5,23.7,29.50,ENE,61,0.0,19.7,25,0.04,,,0.51,VWS V13.01,2013-05-26 02:30:00,
2013-05-25 22:35:00,59.4,23.6,29.50,ENE,61,0.0,19.7,25,0.04,,,0.51,VWS V13.01,2013-05-26 02:35:00,
2013-05-25 22:40:00,59.4,23.6,29.50,ENE,61,0.0,19.7,25,0.04,,,0.51,VWS V13.01,2013-05-26 02:40:00,
2013-05-25 22:45:00,59.4,23.6,29.50,ENE,61,0.0,19.7,25,0.04,,,0.51,VWS V13.01,2013-05-26 02:45:00,
2013-05-25 22:50:00,59.4,22.6,29.50,ENE,61,0.0,19.7,24,0.04,,,0.51,VWS V13.01,2013-05-26 02:50:00,
2013-05-25 22:55:00,59.4,23.6,29.50,ENE,61,0.0,19.7,25,0.04,,,0.51,VWS V13.01,2013-05-26 02:55:00,
2013-05-25 23:00:00,59.4,23.6,29.53,ENE,61,0.0,19.7,25,0.04,,,0.51,VWS V13.01,2013-05-26 03:00:00,
2013-05-25 23:05:00,59.4,23.6,29.53,ENE,61,0.0,19.7,25,0.04,,,0.51,VWS V13.01,2013-05-26 03:05:00,
2013-05-25 23:10:00,59.4,23.6,29.53,ENE,61,0.0,19.7,25,0.04,,,0.51,VWS V13.01,2013-05-26 03:10:00,
2013-05-25 23:15:00,59.2,23.4,29.53,ENE,61,0.0,19.7,25,0.04,,,0.51,VWS V13.01,2013-05-26 03:15:00,
2013-05-25 23:20:00,59.2,23.4,29.53,ENE,61,0.0,19.7,25,0.04,,,0.51,VWS V13.01,2013-05-26 03:20:00,
2013-05-25 23:25:00,59.2,23.4,29.53,ENE,61,0.0,19.7,25,0.04,,,0.51,VWS V13.01,2013-05-26 03:25:00,
2013-05-25 23:30:00,59.0,23.2,29.53,ENE,61,0.0,19.7,25,0.04,,,0.51,VWS V13.01,2013-05-26 03:30:00,
2013-05-25 23:35:00,59.0,24.2,29.53,ENE,61,0.0,19.7,26,0.04,,,0.51,VWS V13.01,2013-05-26 03:35:00,
2013-05-25 23:40:00,59.0,24.2,29.53,ENE,61,0.0,19.7,26,0.04,,,0.51,VWS V13.01,2013-05-26 03:40:00,
2013-05-25 23:45:00,59.0,24.2,29.53,ENE,61,0.0,19.7,26,0.04,,,0.51,VWS V13.01,2013-05-26 03:45:00,
2013-05-25 23:50:00,58.8,24.0,29.53,ENE,61,0.0,19.7,26,0.04,,,0.51,VWS V13.01,2013-05-26 03:50:00,
2013-05-25 23:55:00,58.8,24.9,29.53,ENE,61,0.0,19.7,27,0.04,,,0.51,VWS V13.01,2013-05-26 03:55:00,